FW6474 Weather Reports


time (UTC)temp
C
wind
direction
speed
KPH
gust
KPH
rain 1hr
cm
rain 24hr
cm
rain mn
cm
humidity
%
barometer
mb
20260508231238 17 116 6.4 16.1 0.00 0.05 0.05 60 1008.1
20260508230732 17 212 6.4 16.1 0.00 0.05 0.05 60 1008.1
20260508230225 17 222 8.0 17.7 0.00 0.05 0.05 58 1008.1
20260508225720 17 190 8.0 17.7 0.00 0.05 0.05 56 1008.1
20260508225214 17 215 8.0 17.7 0.00 0.05 0.05 57 1008.1
20260508224707 17 201 6.4 17.7 0.00 0.05 0.05 55 1008.1
20260508224432 17 149 8.0 22.5 0.00 0.05 0.05 54 1008.2
20260508223655 17 236 8.0 22.5 0.00 0.05 0.05 54 1008.2
20260508223150 17 224 8.0 19.3 0.00 0.05 0.05 55 1008.2
20260508222916 17 229 6.4 19.3 0.00 0.05 0.05 53 1008.2
20260508222137 17 205 6.4 16.1 0.00 0.05 0.05 54 1008.2
20260508221902 17 229 6.4 16.1 0.00 0.05 0.05 53 1008.3
20260508221125 17 221 6.4 16.1 0.00 0.05 0.05 53 1008.3
20260508220620 17 226 6.4 20.9 0.00 0.05 0.05 54 1008.3
20260508220113 18 141 6.4 20.9 0.00 0.05 0.05 53 1008.3
20260508215608 18 221 6.4 17.7 0.00 0.05 0.05 55 1008.4
20260508215101 18 240 6.4 17.7 0.00 0.05 0.05 53 1008.4
20260508214827 18 127 6.4 19.3 0.00 0.05 0.05 53 1008.5
20260508214321 18 231 6.4 19.3 0.00 0.05 0.05 53 1008.5
20260508213544 18 223 6.4 17.7 0.00 0.05 0.05 49 1008.5
20260508213037 18 240 6.4 17.7 0.00 0.05 0.05 50 1008.5
20260508212532 18 128 3.2 14.5 0.00 0.05 0.05 50 1008.5
20260508212025 18 214 4.8 14.5 0.00 0.05 0.05 49 1008.6
20260508211519 17 212 4.8 14.5 0.00 0.05 0.05 51 1008.6
20260508211014 17 118 4.8 17.7 0.00 0.05 0.05 51 1008.5
20260508210507 17 205 4.8 17.7 0.00 0.05 0.05 49 1008.7
20260508210233 17 205 3.2 11.3 0.00 0.05 0.05 51 1008.6
20260508205456 17 230 3.2 11.3 0.00 0.05 0.05 51 1008.7
20260508204949 16 240 3.2 11.3 0.00 0.05 0.05 57 1008.8
20260508204444 16 229 3.2 11.3 0.00 0.05 0.05 58 1008.7
20260508203938 16 176 4.8 12.9 0.00 0.05 0.05 58 1008.8
20260508203432 16 123 4.8 12.9 0.00 0.05 0.05 58 1008.9
20260508202925 16 104 6.4 12.9 0.00 0.05 0.05 57 1009.1
20260508202419 16 127 6.4 16.1 0.00 0.05 0.05 57 1009.1
20260508202145 16 155 4.8 16.1 0.00 0.05 0.05 57 1009.3
20260508201408 16 63 4.8 12.9 0.00 0.05 0.05 56 1009.4
20260508200902 15 146 8.0 19.3 0.00 0.05 0.05 56 1009.5
20260508200355 15 173 6.4 19.3 0.00 0.05 0.05 57 1009.6
20260508200121 15 129 4.8 17.7 0.00 0.05 0.05 56 1009.7
20260508195344 15 59 6.4 17.7 0.00 0.05 0.05 56 1009.6
20260508195110 15 96 8.0 19.3 0.00 0.05 0.05 54 1009.8
20260508194332 15 162 8.0 19.3 0.00 0.05 0.05 53 1009.9
20260508193826 15 165 9.7 20.9 0.00 0.05 0.05 53 1009.9
20260508193319 16 131 8.0 20.9 0.00 0.05 0.05 49 1010.0
20260508192814 16 136 6.4 17.7 0.00 0.05 0.05 49 1010.1
20260508192540 16 101 6.4 16.1 0.00 0.05 0.05 49 1010.2
20260508191809 17 173 4.8 16.1 0.00 0.05 0.05 46 1010.4
20260508191310 17 165 4.8 12.9 0.00 0.05 0.05 48 1010.5
20260508191039 17 146 4.8 12.9 0.00 0.05 0.05 46 1010.6
20260508190309 17 164 3.2 14.5 0.00 0.05 0.05 45 1010.5
20260508185810 17 60 3.2 16.1 0.00 0.05 0.05 46 1010.7
20260508185310 17 53 4.8 16.1 0.00 0.05 0.05 44 1010.6
20260508184809 17 176 3.2 9.7 0.00 0.05 0.05 46 1010.7
20260508184309 17 63 1.6 8.0 0.00 0.05 0.05 46 1010.7
20260508184040 16 352 3.2 9.7 0.00 0.05 0.05 49 1010.8
20260508183310 16 51 3.2 9.7 0.00 0.05 0.05 47 1010.8
20260508182806 17 121 3.2 8.0 0.00 0.05 0.05 44 1010.8
20260508182540 17 53 3.2 8.0 0.00 0.05 0.05 48 1010.9
20260508181806 17 217 3.2 11.3 0.00 0.05 0.05 40 1010.9
20260508181305 17 252 4.8 12.9 0.00 0.05 0.05 38 1011.0
20260508180805 17 269 4.8 12.9 0.00 0.05 0.05 40 1011.1
20260508180305 16 40 3.2 14.5 0.00 0.05 0.05 38 1011.2
20260508175806 16 211 3.2 14.5 0.00 0.05 0.05 40 1011.1
20260508175300 16 113 4.8 11.3 0.00 0.05 0.05 38 1011.3
20260508174754 16 293 4.8 14.5 0.00 0.05 0.05 42 1011.4
20260508174248 16 257 4.8 14.5 0.00 0.05 0.05 41 1011.5
20260508173742 16 224 3.2 12.9 0.00 0.05 0.05 39 1011.6
20260508173319 16 257 6.4 16.1 0.00 0.05 0.05 41 1012.0
20260508173306 17 226 1.6 9.7 0.00 0.05 0.05 40 1011.7
20260508173201 16 76 1.6 8.0 0.00 0.05 0.05 40 1011.8
20260508173055 16 314 4.8 17.7 0.00 0.05 0.05 43 1011.9
20260508172949 16 259 4.8 17.7 0.00 0.05 0.05 41 1012.0
20260508171226 16 257 6.4 16.1 0.00 0.05 0.05 41 1012.0
20260508170726 15 233 6.4 16.1 0.00 0.05 0.05 40 1012.1
20260508170227 16 227 4.8 14.5 0.00 0.05 0.05 41 1012.1
20260508165727 15 262 4.8 9.7 0.00 0.05 0.05 43 1012.2
20260508165226 15 239 4.8 16.1 0.00 0.05 0.05 42 1012.2
20260508164959 15 328 6.4 24.1 0.00 0.05 0.05 42 1012.3
20260508164226 15 296 8.0 24.1 0.00 0.05 0.05 40 1012.4
20260508163727 15 39 6.4 24.1 0.00 0.05 0.05 39 1012.6
20260508163227 15 269 4.8 17.7 0.00 0.05 0.05 41 1012.7
20260508162727 15 198 4.8 17.7 0.00 0.05 0.05 42 1012.7
20260508162227 15 189 3.2 8.0 0.00 0.05 0.05 45 1012.6
20260508161728 15 226 3.2 9.7 0.00 0.05 0.05 45 1012.7
20260508161226 15 217 4.8 9.7 0.00 0.05 0.05 46 1012.7
20260508160729 15 305 3.2 9.7 0.00 0.05 0.05 45 1012.7
20260508160231 15 237 1.6 9.7 0.00 0.05 0.05 48 1012.8
20260508155956 14 200 3.2 9.7 0.00 0.05 0.05 47 1012.7
20260508155218 14 55 3.2 9.7 0.00 0.05 0.05 50 1012.8
20260508154712 14 74 4.8 11.3 0.00 0.05 0.05 50 1012.8
20260508154437 14 225 3.2 11.3 0.00 0.05 0.05 49 1012.9
20260508153706 14 223 1.6 6.4 0.00 0.05 0.05 51 1012.9
20260508153205 14 232 3.2 8.0 0.00 0.05 0.05 50 1012.9
20260508152701 13 72 3.2 8.0 0.00 0.05 0.05 50 1012.9
20260508152202 14 102 1.6 6.4 0.00 0.05 0.05 49 1012.9
20260508151931 13 248 1.6 4.8 0.00 0.05 0.05 50 1013.0
20260508151202 13 293 1.6 6.4 0.00 0.05 0.05 52 1013.1
20260508150700 13 108 1.6 6.4 0.00 0.05 0.05 50 1013.1
20260508150202 12 0 1.6 6.4 0.00 0.05 0.05 55 1013.2
20260508145931 12 17 3.2 8.0 0.00 0.05 0.05 52 1013.2
20260508145202 12 303 3.2 9.7 0.00 0.05 0.05 51 1013.2
20260508144700 12 288 3.2 9.7 0.00 0.05 0.05 49 1013.3
20260508144429 13 232 1.6 6.4 0.00 0.05 0.05 54 1013.4
20260508143659 12 205 1.6 6.4 0.00 0.05 0.05 62 1013.4
20260508143158 12 109 3.2 6.4 0.00 0.05 0.05 58 1013.4
20260508142659 12 197 1.6 6.4 0.00 0.05 0.05 54 1013.5
20260508142429 12 290 1.6 8.0 0.00 0.05 0.05 56 1013.5
20260508141930 12 224 1.6 8.0 0.00 0.05 0.05 57 1013.5
20260508141158 12 167 1.6 4.8 0.00 0.05 0.05 57 1013.5
20260508140700 12 288 1.6 4.8 0.00 0.05 0.05 60 1013.6
20260508140200 11 131 1.6 6.4 0.00 0.05 0.05 62 1013.6
20260508140155 11 86 1.6 6.4 0.00 0.05 0.05 60 1013.7
20260508135155 11 98 1.6 4.8 0.00 0.05 0.05 62 1013.7
20260508134654 11 217 1.6 4.8 0.00 0.05 0.05 64 1013.7
20260508134155 11 117 1.6 4.8 0.00 0.05 0.05 63 1013.7
20260508133655 11 214 1.6 6.4 0.00 0.05 0.05 64 1013.7
20260508133156 11 266 1.6 6.4 0.00 0.05 0.05 64 1013.7
20260508132925 11 235 1.6 6.4 0.00 0.05 0.05 64 1013.7
20260508132156 11 109 0.0 4.8 0.00 0.05 0.05 65 1013.7
20260508131653 10 130 1.6 4.8 0.00 0.05 0.05 68 1013.6
20260508131421 10 143 1.6 4.8 0.00 0.05 0.05 68 1013.7
20260508130650 10 210 1.6 4.8 0.00 0.05 0.05 68 1013.7
20260508130151 10 98 1.6 6.4 0.00 0.05 0.05 68 1013.7
20260508125650 10 119 1.6 8.0 0.00 0.05 0.05 69 1013.7
20260508125421 10 158 1.6 8.0 0.00 0.05 0.05 70 1013.6
20260508124650 9 147 1.6 8.0 0.00 0.05 0.05 70 1013.6
20260508124151 9 153 1.6 8.0 0.00 0.05 0.05 69 1013.6
20260508123922 9 359 0.0 4.8 0.00 0.05 0.05 71 1013.6
20260508123146 9 143 0.0 3.2 0.00 0.05 0.05 72 1013.6
20260508122646 8 212 0.0 3.2 0.00 0.05 0.05 73 1013.5
20260508122146 8 124 0.0 3.2 0.00 0.05 0.05 76 1013.5
20260508121647 8 126 0.0 3.2 0.00 0.05 0.05 75 1013.5
20260508121147 8 100 0.0 3.2 0.00 0.05 0.05 76 1013.4
20260508120646 8 237 0.0 1.6 0.00 0.05 0.05 79 1013.3
20260508120146 7 115 0.0 1.6 0.00 0.05 0.05 82 1013.3
20260508115646 7 115 0.0 1.6 0.00 0.05 0.05 85 1013.2
20260508115147 7 118 0.0 1.6 0.00 0.05 0.05 88 1013.3
20260508114640 6 127 0.0 1.6 0.00 0.05 0.05 89 1013.2
20260508114135 6 127 0.0 1.6 0.00 0.05 0.05 90 1013.0
20260508113628 6 127 0.0 0.0 0.00 0.05 0.05 90 1013.1
20260508113353 6 127 0.0 0.0 0.00 0.05 0.05 90 1013.0
20260508112616 5 127 0.0 0.0 0.00 0.05 0.05 89 1013.0
20260508112343 5 127 0.0 0.0 0.00 0.05 0.05 89 1013.0
20260508111604 5 127 0.0 0.0 0.00 0.05 0.05 89 1012.9
20260508111059 5 127 0.0 0.0 0.00 0.05 0.05 90 1012.9
20260508110553 4 127 0.0 0.0 0.00 0.05 0.05 90 1012.8
20260508110048 4 127 0.0 0.0 0.00 0.05 0.05 90 1012.8
20260508105540 3 127 0.0 0.0 0.00 0.05 0.05 90 1012.8
20260508105035 3 127 0.0 0.0 0.00 0.05 0.05 89 1012.7
20260508104529 3 127 0.0 0.0 0.00 0.05 0.05 89 1012.7
20260508104023 3 127 0.0 0.0 0.00 0.05 0.05 89 1012.9
20260508103517 3 127 0.0 0.0 0.00 0.05 0.05 89 1012.8
20260508103010 3 127 0.0 0.0 0.00 0.05 0.05 89 1012.9
20260508102505 3 127 0.0 0.0 0.00 0.05 0.05 89 1012.9
20260508101959 3 127 0.0 0.0 0.00 0.05 0.05 89 1012.8
20260508101453 3 127 0.0 0.0 0.00 0.05 0.05 89 1012.8
20260508100947 3 127 0.0 0.0 0.00 0.05 0.05 89 1012.8
20260508100441 3 127 0.0 0.0 0.00 0.05 0.05 89 1012.8
20260508095935 4 127 0.0 0.0 0.00 0.05 0.05 89 1012.9
20260508095429 4 127 0.0 0.0 0.00 0.05 0.05 89 1012.9
20260508094923 4 127 0.0 0.0 0.00 0.05 0.05 88 1012.9
20260508094416 4 127 0.0 0.0 0.00 0.05 0.05 89 1012.9
20260508093911 4 127 0.0 0.0 0.00 0.05 0.05 88 1012.9
20260508093405 4 127 0.0 0.0 0.00 0.05 0.05 88 1012.9
20260508092859 4 127 0.0 0.0 0.00 0.05 0.05 88 1012.9
20260508092353 5 127 0.0 0.0 0.00 0.05 0.05 88 1012.9
20260508091847 5 127 0.0 0.0 0.00 0.05 0.05 88 1012.9
20260508091613 5 127 0.0 1.6 0.00 0.05 0.05 88 1012.9
20260508091105 5 127 0.0 1.6 0.00 0.05 0.05 88 1012.9
20260508090328 5 255 0.0 0.0 0.00 0.05 0.05 88 1013.0
20260508090056 5 255 0.0 0.0 0.00 0.05 0.05 88 1013.1
20260508085317 5 255 0.0 1.6 0.00 0.05 0.05 88 1013.0
20260508085043 5 255 0.0 1.6 0.00 0.05 0.05 88 1013.0
20260508084930 5 255 0.0 0.0 0.00 0.05 0.05 88 1013.0
20260508084658 5 255 0.0 0.0 0.00 0.05 0.05 88 1013.1
20260508083253 5 255 0.0 0.0 0.00 0.05 0.05 88 1012.9
20260508082746 5 255 0.0 0.0 0.00 0.05 0.05 88 1012.9
20260508082240 5 255 0.0 1.6 0.00 0.05 0.05 88 1012.9
20260508081735 5 254 0.0 1.6 0.00 0.05 0.05 88 1012.9
20260508081229 6 256 0.0 0.0 0.00 0.05 0.05 88 1013.0
20260508080722 6 256 0.0 0.0 0.00 0.05 0.05 88 1013.1
20260508080216 6 255 0.0 1.6 0.03 0.05 0.05 88 1013.1
20260508075710 6 256 0.0 3.2 0.03 0.05 0.05 89 1013.1
20260508075205 6 255 0.0 3.2 0.03 0.05 0.05 89 1013.1
20260508074659 6 15 0.0 1.6 0.03 0.05 0.05 89 1013.0
20260508074153 6 6 0.0 0.0 0.03 0.05 0.05 89 1013.0
20260508073647 6 6 0.0 0.0 0.03 0.05 0.05 89 1013.1
20260508073143 6 6 0.0 0.0 0.03 0.05 0.05 88 1013.1
20260508073137 6 6 0.0 0.0 0.03 0.05 0.05 89 1013.0
20260508072129 6 6 0.0 0.0 0.03 0.05 0.05 89 1013.1
20260508071623 6 6 0.0 0.0 0.03 0.05 0.05 89 1013.2
20260508071348 6 6 0.0 0.0 0.03 0.05 0.05 89 1013.1
20260508070610 6 6 0.0 3.2 0.03 0.05 0.05 88 1013.1
20260508070105 6 6 0.0 3.2 0.00 0.03 0.03 88 1013.1
20260508065559 6 32 0.0 1.6 0.00 0.03 0.03 88 1013.1
20260508065053 6 28 0.0 1.6 0.00 0.03 0.03 88 1013.0
20260508064547 6 101 0.0 1.6 0.00 0.03 0.03 88 1013.1
20260508064311 6 101 0.0 0.0 0.00 0.03 0.03 88 1013.1
20260508063534 6 101 0.0 1.6 0.00 0.03 0.03 87 1013.0
20260508063302 6 101 0.0 1.6 0.00 0.03 0.03 87 1013.0
20260508062523 6 101 0.0 0.0 0.00 0.03 0.03 87 1013.0
20260508062017 6 101 0.0 0.0 0.00 0.03 0.03 87 1013.0
20260508061510 6 101 0.0 0.0 0.00 0.03 0.03 87 1013.1
20260508061005 6 101 0.0 1.6 0.00 0.03 0.03 86 1013.1
20260508060729 6 101 0.0 1.6 0.00 0.03 0.03 86 1013.3
20260508055952 6 101 0.0 0.0 0.00 0.03 0.03 86 1013.2
20260508055447 6 101 0.0 0.0 0.00 0.03 0.03 86 1013.2
20260508054941 6 101 0.0 0.0 0.00 0.03 0.03 85 1013.1
20260508054434 6 101 0.0 0.0 0.03 0.03 0.03 84 1013.2
20260508054201 6 101 0.0 0.0 0.03 0.03 0.03 84 1013.2
20260508053423 6 101 0.0 0.0 0.03 0.03 0.03 84 1013.2
20260508053147 7 101 0.0 0.0 0.03 0.03 0.03 83 1013.3
20260508052411 7 101 0.0 0.0 0.03 0.03 0.03 83 1013.4
20260508051905 7 101 0.0 0.0 0.03 0.03 0.03 83 1013.4
20260508051359 7 101 0.0 0.0 0.03 0.03 0.03 81 1013.5
20260508050852 7 101 0.0 0.0 0.03 0.03 0.03 80 1013.6
20260508050351 7 101 1.6 9.7 0.03 0.03 0.03 78 1013.5
20260508050347 7 101 0.0 1.6 0.03 0.03 0.03 79 1013.5
20260508045347 8 248 4.8 12.9 0.03 0.03 0.03 77 1013.8
20260508045121 8 292 6.4 16.1 0.00 0.00 0.03 75 1014.0
20260508044347 9 229 6.4 16.1 0.00 0.00 0.00 72 1014.0
20260508044118 10 291 3.2 16.1 0.00 0.00 0.00 66 1013.7
20260508043346 10 305 1.6 4.8 0.00 0.00 0.00 62 1013.4
20260508042847 10 303 0.0 3.2 0.00 0.00 0.00 62 1013.4
20260508042347 10 278 0.0 3.2 0.00 0.00 0.00 61 1013.2
20260508041846 10 262 0.0 4.8 0.00 0.00 0.00 63 1013.2
20260508041344 10 258 1.6 4.8 0.00 0.00 0.00 61 1013.1
20260508041115 10 259 1.6 6.4 0.00 0.00 0.00 61 1013.1
20260508040344 10 259 3.2 9.7 0.00 0.00 0.00 61 1013.1
20260508035844 10 251 1.6 9.7 0.00 0.00 0.00 60 1013.1
20260508035615 10 220 0.0 6.4 0.00 0.00 0.00 59 1013.1
20260508035116 10 229 0.0 6.4 0.00 0.00 0.00 58 1013.2
20260508034616 10 240 1.6 6.4 0.00 0.00 0.00 58 1013.1
20260508034115 11 214 3.2 12.9 0.00 0.00 0.00 57 1013.3
20260508033344 11 269 1.6 12.9 0.00 0.00 0.00 57 1013.3
20260508033114 11 211 1.6 11.3 0.00 0.00 0.00 56 1013.4
20260508032344 11 195 1.6 11.3 0.00 0.00 0.00 55 1013.5
20260508032114 11 237 0.0 3.2 0.00 0.00 0.00 54 1013.4
20260508031616 11 239 1.6 9.7 0.00 0.00 0.00 54 1013.5
20260508030844 11 252 1.6 9.7 0.00 0.00 0.00 53 1013.6
20260508030343 11 240 0.0 3.2 0.00 0.00 0.00 54 1013.6
20260508030110 11 213 0.0 1.6 0.00 0.00 0.00 54 1013.6
20260508025334 11 209 0.0 1.6 0.00 0.00 0.00 55 1013.5
20260508024827 11 234 0.0 1.6 0.00 0.00 0.00 54 1013.3
20260508024321 11 238 0.0 1.6 0.00 0.00 0.00 55 1013.3
20260508023816 11 235 0.0 4.8 0.00 0.00 0.00 54 1013.1
20260508023541 11 248 1.6 4.8 0.00 0.00 0.00 53 1013.1
20260508022804 11 260 0.0 3.2 0.00 0.00 0.00 53 1013.2
20260508022258 11 270 1.6 6.4 0.00 0.00 0.00 54 1013.2
20260508021753 11 256 1.6 6.4 0.00 0.00 0.00 53 1013.1
20260508021246 11 290 0.0 3.2 0.00 0.00 0.00 53 1013.0
20260508020739 11 280 1.6 8.0 0.00 0.00 0.00 54 1013.1
20260508020233 11 233 1.6 8.0 0.00 0.00 0.00 54 1013.0
20260508015727 11 294 1.6 8.0 0.00 0.00 0.00 53 1013.0
20260508015719 11 324 1.6 8.0 0.00 0.00 0.00 53 1013.0
20260508014711 10 281 1.6 9.7 0.00 0.00 0.00 53 1013.0
20260508014436 10 276 1.6 9.7 0.00 0.00 0.00 54 1013.1
20260508013659 10 304 1.6 8.0 0.00 0.00 0.00 56 1013.0
20260508013153 10 312 1.6 8.0 0.00 0.00 0.00 56 1012.9
20260508012647 10 319 3.2 17.7 0.00 0.00 0.00 56 1013.0
20260508012141 10 297 4.8 17.7 0.00 0.00 0.00 56 1013.0
20260508011904 10 317 8.0 24.1 0.00 0.00 0.00 56 1012.8
20260508011129 11 302 8.0 24.1 0.00 0.00 0.00 56 1012.9
20260508010901 11 301 4.8 19.3 0.00 0.00 0.00 48 1013.0
20260508010129 11 259 3.2 11.3 0.00 0.00 0.00 46 1012.7
20260508005629 11 270 1.6 11.3 0.00 0.00 0.00 46 1012.6
20260508005129 11 288 1.6 4.8 0.00 0.00 0.00 46 1012.5
20260508004630 11 207 1.6 9.7 0.00 0.00 0.00 46 1012.4
20260508004129 12 277 4.8 14.5 0.00 0.00 0.00 45 1012.4
20260508003902 12 278 6.4 14.5 0.00 0.00 0.00 45 1012.4
20260508003130 12 298 4.8 14.5 0.00 0.00 0.00 44 1012.4
20260508002629 12 245 3.2 11.3 0.00 0.00 0.00 44 1012.4
20260508002129 12 281 3.2 11.3 0.00 0.00 0.00 44 1012.4
20260508001629 12 217 3.2 12.9 0.00 0.00 0.00 44 1012.4
20260508001130 12 188 4.8 12.9 0.00 0.00 0.00 44 1012.4
20260508000630 12 287 4.8 14.5 0.00 0.00 0.00 44 1012.4
20260508000128 12 264 6.4 17.7 0.00 0.00 0.00 43 1012.4
20260507235629 12 227 6.4 17.7 0.00 0.00 0.00 43 1012.5
20260507235127 12 319 6.4 17.7 0.00 0.00 0.00 43 1012.4
20260507234627 12 268 4.8 17.7 0.00 0.00 0.00 42 1012.3
20260507234128 12 285 6.4 16.1 0.00 0.00 0.00 43 1012.2
20260507233628 12 236 9.7 16.1 0.00 0.00 0.00 42 1012.3
20260507233128 12 260 9.7 22.5 0.00 0.00 0.00 42 1012.3
20260507232627 13 260 11.3 24.1 0.00 0.00 0.00 41 1012.3
20260507232357 13 229 8.0 24.1 0.00 0.00 0.00 41 1012.3
20260507231627 13 330 6.4 20.9 0.00 0.00 0.00 40 1012.4